{"data":{"norad_id":65820,"epoch":"2026-05-25T04:11:48.259104Z","epoch_age_seconds":56955,"freshness":"FRESH","line1":"1 65820U 25220D   26145.17486411  .00000047  00000+0  75515-4 0  9999","line2":"2 65820  86.5005  51.6597 0001443  62.8336 297.2945 13.24405036 31875","mean_motion":13.24405036,"eccentricity":0.0001443,"inclination_deg":86.5005,"raan_deg":51.6597,"arg_perigee_deg":62.8336,"mean_anomaly_deg":297.2945,"bstar":7.5515e-5,"rev_number":3187,"period_min":108.72806738557,"perigee_km":1166.8521421337,"apogee_km":1169.0299402564,"semimajor_km":7546.078041195,"source":"CELESTRAK","updated_at":"2026-05-25T13:38:05.701592Z"}}